| time (UTC) | temp F | wind direction | speed knots | gust knots | rain 1hr in | rain 24hr in | rain mn in | humidity % | barometer mb |
| 20260505004640 | 59 | 259 | 0.0 | 1.7 | 0.00 | 0.00 | 0.00 | 70 | 1011.7 |
| 20260505002642 | 60 | 46 | 0.0 | 1.7 | 0.00 | 0.00 | 0.00 | 67 | 1011.6 |
| 20260505001025 | 59 | 248 | 0.0 | 1.7 | 0.00 | 0.00 | 0.00 | 69 | 1011.9 |
| 20260504235137 | 60 | 214 | 0.0 | 0.9 | 0.00 | 0.00 | 0.00 | 67 | 1012.2 |
| 20260504233147 | 61 | 129 | 0.0 | 0.9 | 0.00 | 0.00 | 0.00 | 66 | 1012.6 |
| 20260504231151 | 60 | 127 | 1.7 | 4.3 | 0.00 | 0.00 | 0.00 | 67 | 1012.6 |
| 20260504225423 | 60 | 146 | 3.5 | 3.5 | 0.00 | 0.00 | 0.00 | 67 | 1012.7 |
| 20260504223802 | 61 | 162 | 0.9 | 1.7 | 0.00 | 0.00 | 0.00 | 66 | 1012.6 |
| 20260504221920 | 62 | 44 | 0.0 | 3.5 | 0.00 | 0.00 | 0.00 | 63 | 1012.4 |
| 20260504220053 | 63 | 44 | 1.7 | 4.3 | 0.00 | 0.00 | 0.00 | 63 | 1012.4 |
| 20260504214035 | 63 | 52 | 2.6 | 5.2 | 0.00 | 0.00 | 0.00 | 62 | 1012.5 |
| 20260504212417 | 63 | 42 | 1.7 | 5.2 | 0.00 | 0.00 | 0.00 | 62 | 1012.7 |
| 20260504210753 | 63 | 49 | 1.7 | 5.2 | 0.00 | 0.00 | 0.00 | 61 | 1012.8 |
| 20260504205130 | 63 | 38 | 2.6 | 4.3 | 0.00 | 0.00 | 0.00 | 59 | 1012.9 |
| 20260504203953 | 64 | 353 | 0.0 | 2.6 | 0.00 | 0.00 | 0.00 | 57 | 1013.0 |
| 20260504202548 | 63 | 318 | 0.0 | 3.5 | 0.00 | 0.00 | 0.00 | 58 | 1013.0 |
| 20260504200559 | 64 | 309 | 0.9 | 2.6 | 0.00 | 0.00 | 0.00 | 56 | 1012.9 |
| 20260504195046 | 67 | 105 | 2.6 | 2.6 | 0.00 | 0.00 | 0.00 | 49 | 1012.8 |
| 20260504193753 | 67 | 57 | 0.9 | 2.6 | 0.00 | 0.00 | 0.00 | 50 | 1012.7 |
| 20260504192138 | 67 | 88 | 2.6 | 2.6 | 0.00 | 0.00 | 0.00 | 50 | 1012.7 |
| 20260504190626 | 67 | 91 | 2.6 | 3.5 | 0.00 | 0.00 | 0.00 | 50 | 1012.5 |
| 20260504185117 | 67 | 110 | 1.7 | 2.6 | 0.00 | 0.00 | 0.00 | 50 | 1012.3 |
| 20260504183710 | 68 | 92 | 2.6 | 3.5 | 0.00 | 0.00 | 0.00 | 49 | 1012.3 |
| 20260504182201 | 68 | 98 | 3.5 | 4.3 | 0.00 | 0.00 | 0.00 | 48 | 1012.2 |
| 20260504180651 | 68 | 106 | 3.5 | 4.3 | 0.00 | 0.00 | 0.00 | 49 | 1012.2 |
| 20260504174810 | 68 | 91 | 3.5 | 5.2 | 0.00 | 0.00 | 0.00 | 48 | 1012.3 |
| 20260504173148 | 69 | 90 | 2.6 | 4.3 | 0.00 | 0.00 | 0.00 | 48 | 1012.3 |
| 20260504171545 | 69 | 75 | 0.9 | 3.5 | 0.00 | 0.00 | 0.00 | 49 | 1012.3 |
| 20260504160348 | 71 | 42 | 2.6 | 4.3 | 0.00 | 0.00 | 0.00 | 44 | 1012.7 |
| 20260504150127 | 73 | 38 | 2.6 | 5.2 | 0.00 | 0.00 | 0.00 | 42 | 1013.0 |
| 20260504140133 | 72 | 133 | 1.7 | 5.2 | 0.00 | 0.00 | 0.00 | 43 | 1013.3 |
| 20260504130239 | 72 | 47 | 2.6 | 7.0 | 0.00 | 0.00 | 0.00 | 43 | 1013.9 |
| 20260504120309 | 71 | 49 | 3.5 | 6.1 | 0.00 | 0.00 | 0.00 | 43 | 1014.3 |
| 20260504100141 | 68 | 281 | 3.5 | 7.0 | 0.00 | 0.00 | 0.00 | 48 | 1015.5 |
| 20260504081630 | 62 | 97 | 1.7 | 6.1 | 0.00 | 0.00 | 0.00 | 53 | 1015.5 |
| 20260504044632 | 49 | 298 | 2.6 | 4.3 | 0.00 | 0.00 | 0.00 | 74 | 1014.8 |
| 20260504043030 | 52 | 295 | 0.9 | 1.7 | 0.00 | 0.00 | 0.00 | 69 | 1014.4 |
| 20260504041536 | 51 | 76 | 0.9 | 2.6 | 0.00 | 0.00 | 0.00 | 70 | 1014.2 |
| 20260504040020 | 51 | 67 | 0.9 | 5.2 | 0.00 | 0.00 | 0.00 | 69 | 1014.0 |
| 20260504034623 | 53 | 17 | 2.6 | 3.5 | 0.00 | 0.00 | 0.00 | 65 | 1014.1 |
| 20260504033010 | 53 | 315 | 0.9 | 1.7 | 0.00 | 0.00 | 0.00 | 66 | 1014.4 |
| 20260504031514 | 53 | 316 | 0.0 | 0.9 | 0.00 | 0.00 | 0.00 | 66 | 1014.4 |
| 20260504030109 | 53 | 314 | 0.0 | 1.7 | 0.00 | 0.00 | 0.00 | 67 | 1014.4 |
| 20260504024520 | 54 | 333 | 0.0 | 1.7 | 0.00 | 0.00 | 0.00 | 65 | 1014.5 |
| 20260504023026 | 53 | 333 | 0.0 | 2.6 | 0.00 | 0.00 | 0.00 | 67 | 1014.3 |
| 20260504021510 | 53 | 304 | 2.6 | 4.3 | 0.00 | 0.00 | 0.00 | 68 | 1014.4 |
| 20260504020011 | 54 | 293 | 3.5 | 4.3 | 0.00 | 0.00 | 0.00 | 66 | 1014.3 |
| 20260504014518 | 55 | 297 | 1.7 | 2.6 | 0.00 | 0.00 | 0.00 | 65 | 1014.2 |
| 20260504013127 | 55 | 302 | 0.9 | 2.6 | 0.00 | 0.00 | 0.00 | 64 | 1014.0 |
| 20260504011526 | 56 | 36 | 0.0 | 0.9 | 0.00 | 0.00 | 0.00 | 59 | 1013.9 |